Orbital Elements at Epoch 2459000.5 (2020-May-31.0) TDB
Reference: JPL 11 (heliocentric ecliptic J2000)
Element | Value | Uncertainty (1-sigma) | Units |
e | .1248558324496971 | 6.4501e-05 | |
a | 1.089067574897975 | 6.3229e-05 | au |
q | .9530911362401152 | 1.4925e-05 | au |
i | 8.724344170038792 | 0.003884 | deg |
node | 54.60588469932839 | 0.00018338 | deg |
peri | 302.1441865922661 | 0.0012984 | deg |
M | 259.0703205816685 | 0.0062324 | deg |
tp | 2459116.885013611835 (2020-Sep-24.38501361) | 0.0029608 | TDB |
period | 415.1267014987727 1.14 | 0.036152 9.898e-05 | d yr |
n | .867205117618926 | 7.5523e-05 | deg/d |
Q | 1.225044013555834 | 7.1124e-05 | au |
|
| | Orbit Determination Parameters
Additional Information
|